sat.trackr.live / text

‹ back to catalog

STARLINK-6380

NORAD 57344 · 2023-099S

PAYLOAD ACTIVE UNKNOWN

§ Identity

Operator
Country
US
Launch date
2023-07-16
Launch site
AFETR
Launch vehicle
Mass (kg)
RCS (m²)

Purposes: comms

External: N2YO · Heavens-Above · Gunter

§ Orbital elements

Epoch: 2026-09-20T15:12:14.002560Z

Period
94.27 min
Inclination
43.0042°
Eccentricity
0.0000893
Mean motion
15.27575621 rev/d
Perigee alt
482.4 km
Apogee alt
483.7 km
Semi-major
6,861.2 km
B*
9.9885e-6
RAAN
231.1912°
Arg perigee
332.5318°
Mean anomaly
27.5487°
Rev number
17,589

§ Raw data

STARLINK-63801 57344U 23099S   26263.63349540  .00000013  00000+0  99885-5 0  99962 57344  43.0042 231.1912 0000893 332.5318  27.5487 15.27575621175896

JSON: /api/v1/satellites/57344 · /tle

For live sub-satellite position, see the globe view (requires WebGL).

§ Visibility from observer

Set your observer location to see the next 7 days of passes ≥ 10°. The values pass through the URL so the page stays shareable.

No JS? Fill the form by hand. The geolocation button needs JavaScript.